Location: Il Ritiro
(43.4167°N, 13.1333°E)
Time: 07:50:05
(UTC+00:00)

SL-16 R/B - Pass Details

Date: 05 July 2020
Orbit: 985 x 1006 km, 99.5° (Epoch: 05 August)

Event Time Altitude Azimuth Distance (km) Brightness Sun altitude
Exits shadow 23:31:34 10° 116° (ESE) 2,791 4.7 -23.8°
Reaches altitude 10° 23:31:39 10° 116° (ESE) 2,763 4.7 -23.8°
Maximum altitude 23:36:44 27° 61° (ENE) 1,810 4.2 -23.7°
Drops below altitude 10° 23:41:50 10° 6° (N) 2,787 6.0 -23.6°
Sets 23:44:41 0° 355° (N) 3,743 6.9 -23.5°
